CanjetBLOCKVirtuelBLOCKQcBLOCKBLOCKBLOCKBLOCKBLOCKBLOCKBLOCKBLOCKBLOCKBLOCKBLOCKvolsBLOCKavecBLOCKFS-kACARS2021-04-19BLOCK02colon17am

volsBLOCKBLOCKBLOCKBLOCKBLOCKpilotesBLOCKBLOCKBLOCKBLOCKBLOCKBLOCKBLOCKBLOCKtypeBLOCKBLOCKdepBLOCKBLOCKarrBLOCKBLOCKBLOCKBLOCKBLOCKaltBLOCKBLOCKBLOCKBLOCKBLOCKgsBLOCKBLOCKBLOCKBLOCKstatut

CJA6MichelBLOCKAB738CYUL-CYHZ0ft0ktsarrived












BLOCKAppuyerBLOCKsurBLOCKF5BLOCKpourBLOCKactualiserBLOCKBLOCKBLOCKMiseBLOCKaBLOCKjourcolonBLOCK02colon17colon53amCanjetBLOCKvirtuelBLOCKQC

Bienvenue chez Canjetvirtuel-Q

Publié par Michel Ayotte le 2013-06-14

 

Canjetvirtuel-Québec est une compagnie aérienne virtuelle qui a été fondée par 2 passionnés de la simulation de vol.

Elle est opérée avec les Boeing 737. Exceptionnelement et pour votre plaisir tous les autres versions de Boeing et Airbus sont autorisées.

Ces appareils pouvant faire des vols cargos ou des vols passagers, que ce soit au Canada, Europe, États-Unis, Mexique, Caraïbes et autres destinations mondiales.

Vous trouverez votre place comme pilote chez nous!



Avis

Aux fins de la simulation de vol seulement. CanjetVirtuel Québec n'est en aucun cas affilié avec n'importe quelle compagnie aérienne du monde réel. CanjetVirtuel Québec est un site à but non lucratif gérée par des amateurs de simulation de vol. Toutes les images sont la propriété exclusive de leurs propriétaires respectifs.
| propulsé par phpVMS, © 2013-2020.

Notice

For flight simulation purposes only. CanjetVirtuel Quebec is in no way affiliated with any real world airline. CanjetVirtuel Quebec is a non-profit site run by flight simulation enthusiasts. All images are the sole property of their respective owners.
| powered by phpVMS, © 2013-2020.

Affiliations

Vatsim

Les statistiques du site

Nombre de pilotes: 14
Total des vols effectués: 8016
Trajets disponibles: 736
Passagers transportés: 2038328
Total des heures de vol: 27521
Distance totale (NM): 10737506
Pilotes en ligne: 0

Nouvelles

Bienvenue chez Canjetvirtuel-Q
06/14/2013

METAR

CYHZ 190600Z 32015G23KT 12SM OVC010 03/02 A2960 RMK SC8 SLP030

CYQB 190600Z 08004KT 15SM OVC072 05/05 A2978 RMK AC8 SLP088

CYUL 190600Z 24004KT 15SM OVC140 08/06 A2978 RMK AC8 SLP087

CYYZ 190600Z 24005KT 15SM FEW150 04/M01 A2982 RMK AC1 AC TR SLP102